Tracking 29892 objects as of 21-Nov-2024
HD Live streaming from Space Station
objects crossing your sky now

STARLINK-31345

Track STARLINK-31345 now!
10-day predictions
STARLINK-31345 is classified as:


NORAD ID: 58941
Int'l Code: 2024-027L
Perigee: 481.4 km
Apogee: 483.3 km
Inclination: 53.2 °
Period: 94.1 minutes
Semi major axis: 6853 km
RCS: Unknown
Launch date: February 10, 2024
Source: United States (US)
Launch site: AIR FORCE WESTERN TEST RANGE (AFWTR)
Your satellite tracking list
Your tracking list is empty




NASA's NSSDC Master Catalog

Two Line Element Set (TLE):
1 58941U 24027L   24325.48672184  .00000686  00000-0  35276-4 0  9995
2 58941  53.1588 352.3983 0001363  78.8221 281.2933 15.30195598 44724
Source of the keplerian elements: AFSPC